Weather in Burgos

Spain     42°20′21″N   3°42′04″W
temp.,
°C
wind,
m/s
gust,
m/s
humid.,
%
clouds,
%
prec.,
mm/h
press.,
hPa
HPBL,
m
12 april, mon
mon1223:00+2nne7119081 0.0 1026561
02:00+2ne7107537 0.1 1028783
05:00−1ne511865 0.0 1029448
08:00−1ne612785 0.0 1029508
11:00+4ne67535 0.0 1028667
14:00+10ne55429 0.0 1025963
17:00+11ne664411 0.0 1023918
20:00+8ne595980 0.0 1024339
13 april, tue
tue1323:00+4ne4874100 0.0 1027138
02:00+4ene3469100 0.0 102775
05:00+4ne2267100 0.0 102516
08:00+3ne2268100 0.0 102512
11:00+9ne1149100 0.0 1024282
14:00+13sw2342100 0.0 1022880
17:00+16sw234061 0.0 10191585
20:00+13w1255100 0.0 101912
14 april, wed
wed1423:00+11ne2261100 0.0 102124
02:00+8ene116963 0.0 102012
05:00+8ne1168100 0.0 102017
08:00+6ne227589 0.0 102023
11:00+12ne2260100 0.0 1018379
14:00+16nne3252100 0.0 10161221
17:00+16nne6454100 0.0 1015923
20:00+12ne71166100 0.0 1015367
15 april, thu
thu1523:00+9ne61073100 0.0 1017226
02:00+8ne5876100 0.0 1017188
05:00+7ne697599 0.0 1016208
08:00+6ne588399 0.0 1017187
11:00+11ne6669100 0.0 1015459
14:00+13ne7763100 0.0 1014628
17:00+13ne8863100 0.0 1013807
20:00+11ne6873100 0.0 1014468
16 april, fri
fri1623:00+8ne588098 0.0 1016283
02:00+7ne57778 0.0 1017243
05:00+3ne598725 0.0 1018202
08:00+2ne611825 0.0 1019251
11:00+7nne89590 0.0 1018605
14:00+10nne78465 0.0 10171215
17:00+10nne894699 0.0 10171428
20:00+5nne8116212 0.0 10201083